Jackson, MI

5:51 PM EST on December 06, 2019 (GMT -0500)
Jackson County-Reynolds

Weather History for KJXN - November, 2019

Change the Weather History Date:

Saturday, November 16, 2019

  Actual Average Record
Temperature  
Mean Temperature 26 °F 40 °F  
Max Temperature 34 °F 48 °F 67 °F (1953)
Min Temperature 18 °F 32 °F 11 °F (1972)
Degree Days  
Heating Degree Days 39 25  
Month to date heating degree days 542 357  
Since 1 July heating degree days 1031 1005  
Cooling Degree Days 0 0  
Month to date cooling degree days 0 0  
Year to date cooling degree days 663 592  
Moisture  
Dew Point 19 °F    
Average Humidity 75    
Maximum Humidity 91    
Minimum Humidity 51    
Precipitation  
Precipitation 0.00 in 0.09 in 1.43 in (1988)
Month to date precipitation 0.61 1.42  
Year to date precipitation 32.52 28.45  
Sea Level Pressure  
Sea Level Pressure 30.42 in    
Wind  
Wind Speed 5 mph ()    
Max Wind Speed 13 mph    
Max Gust Speed 19 mph    
Visibility 10.0 miles    
Events      
T = Trace of Precipitation, MM = Missing Value Source: Averaged Metar Reports

Daily Weather History Graph

Daily Weather History Graph

Search for Another Location

Airport or City:

Astronomy

Nov. 16, 2019 Rise Set
Actual Time 7:29 AM EST 5:15 PM EST
Civil Twilight 6:59 AM EST 5:45 PM EST
Nautical Twilight 6:25 AM EST 6:19 PM EST
Astronomical Twilight 5:51 AM EST 6:52 PM EST
Moon 8:45 PM EST (11/16) 11:24 AM EST (11/16)
Length of Visible Light 10h 46m
Length of Day
9h 46m
Waning Gibbous, 82% of the Moon is Illuminated
Nov 16
Waning Gibbous
Nov 19
Last Quarter
Nov 26
New
Dec 4
First Quarter
Dec 12
Full

Hourly Weather History & Observations

Time (EST) Temp. Windchill Dew Point Humidity Pressure Visibility Wind Dir Wind Speed Gust Speed Precip Events Conditions
12:56 AM 24.1 °F 19.7 °F 19.9 °F 84% 30.47 in 10.0 mi ENE 3.5 mph - N/A   Clear
1:56 AM 23.0 °F 15.8 °F 19.9 °F 88% 30.46 in 10.0 mi NE 5.8 mph - N/A   Clear
2:56 AM 23.0 °F 15.8 °F 19.0 °F 85% 30.47 in 10.0 mi NE 5.8 mph - N/A   Clear
3:56 AM 19.9 °F 11.1 °F 16.0 °F 85% 30.47 in 10.0 mi NNE 6.9 mph - N/A   Clear
4:56 AM 21.9 °F 15.7 °F 17.1 °F 82% 30.47 in 10.0 mi NNE 4.6 mph - N/A   Clear
5:45 AM 21.0 °F - 17.1 °F 85% 30.44 in 10.0 mi Calm Calm - N/A   Mostly Cloudy
5:56 AM 19.9 °F 14.9 °F 17.1 °F 89% 30.50 in 10.0 mi NNE 3.5 mph - N/A   Overcast
6:29 AM 19.9 °F 13.4 °F 16.0 °F 85% 30.45 in 10.0 mi North 4.6 mph - N/A   Scattered Clouds
6:56 AM 19.0 °F 12.3 °F 15.1 °F 85% 30.50 in 10.0 mi NNE 4.6 mph - N/A   Clear
7:56 AM 19.0 °F 11.1 °F 15.1 °F 85% 30.51 in 10.0 mi NE 5.8 mph - N/A   Clear
8:56 AM 19.9 °F 10.1 °F 16.0 °F 85% 30.52 in 10.0 mi NE 8.1 mph - N/A   Clear
9:56 AM 24.1 °F 17.0 °F 18.0 °F 77% 30.52 in 10.0 mi NE 5.8 mph - N/A   Clear
10:56 AM 30.0 °F 24.1 °F 21.0 °F 69% 30.52 in 10.0 mi NE 5.8 mph - N/A   Clear
11:56 AM 32.0 °F 23.6 °F 18.0 °F 56% 30.49 in 10.0 mi East 10.4 mph - N/A   Clear
12:56 PM 33.1 °F 26.1 °F 18.0 °F 54% 30.46 in 10.0 mi ENE 8.1 mph - N/A   Clear
1:56 PM 34.0 °F 28.0 °F 21.9 °F 61% 30.43 in 10.0 mi ENE 6.9 mph - N/A   Clear
2:56 PM 34.0 °F 27.2 °F 21.9 °F 61% 30.40 in 10.0 mi ENE 8.1 mph - N/A   Clear
3:56 PM 34.0 °F 26.0 °F 21.9 °F 61% 30.39 in 10.0 mi ENE 10.4 mph - N/A   Clear
4:56 PM 32.0 °F 23.6 °F 21.0 °F 64% 30.38 in 10.0 mi ENE 10.4 mph - N/A   Clear
5:56 PM 30.0 °F 24.1 °F 21.0 °F 69% 30.38 in 10.0 mi East 5.8 mph - N/A   Partly Cloudy
6:56 PM 30.0 °F 21.7 °F 21.0 °F 69% 30.39 in 10.0 mi East 9.2 mph - N/A   Scattered Clouds
7:04 PM 30.0 °F 21.7 °F 21.9 °F 72% 30.35 in 10.0 mi East 9.2 mph - N/A   Mostly Cloudy
7:56 PM 30.0 °F 21.1 °F 21.9 °F 72% 30.37 in 10.0 mi ENE 10.4 mph - N/A   Overcast
8:56 PM 28.0 °F 18.6 °F 21.0 °F 75% 30.34 in 10.0 mi ENE 10.4 mph - N/A   Overcast
9:56 PM 27.0 °F 19.5 °F 19.9 °F 75% 30.33 in 10.0 mi ENE 6.9 mph - N/A   Overcast
10:20 PM 25.0 °F 17.1 °F 19.0 °F 78% 30.28 in 10.0 mi ENE 6.9 mph - N/A   Scattered Clouds
10:56 PM 25.0 °F 18.1 °F 17.1 °F 72% 30.30 in 10.0 mi NE 5.8 mph - N/A   Clear
11:56 PM 23.0 °F 17.0 °F 16.0 °F 74% 30.29 in 10.0 mi NE 4.6 mph - N/A   Clear